TimeMDT,TemperatureF,Dew PointF,Humidity,Sea Level PressureIn,VisibilityMPH,Wind Direction,Wind SpeedMPH,Gust SpeedMPH,PrecipitationIn,Events,Conditions,WindDirDegrees,DateUTC
12:15 AM,27.9,2.1,33,30.20,10.0,Calm,Calm,-,N/A,,Clear,0,2013-03-26 06:15:00
12:35 AM,27.1,2.7,35,30.20,10.0,North,4.6,-,N/A,,Clear,350,2013-03-26 06:35:00
12:55 AM,26.2,1.4,34,30.19,10.0,WNW,9.2,-,N/A,,Clear,300,2013-03-26 06:55:00
1:15 AM,23.5,0.7,37,30.19,10.0,NNW,5.8,-,N/A,,Clear,340,2013-03-26 07:15:00
1:35 AM,26.2,2.1,36,30.20,10.0,NW,6.9,-,N/A,,Clear,310,2013-03-26 07:35:00
1:55 AM,25.9,2.8,37,30.19,10.0,NW,6.9,-,N/A,,Clear,310,2013-03-26 07:55:00
2:15 AM,22.8,-0.6,36,30.19,10.0,NW,6.9,-,N/A,,Clear,310,2013-03-26 08:15:00
2:35 AM,22.5,0.9,39,30.18,10.0,North,4.6,-,N/A,,Clear,350,2013-03-26 08:35:00
2:55 AM,22.1,0.7,39,30.18,10.0,WNW,3.5,-,N/A,,Clear,300,2013-03-26 08:55:00
3:15 AM,20.8,-1.3,38,30.18,10.0,NNW,3.5,-,N/A,,Clear,340,2013-03-26 09:15:00
3:35 AM,20.1,0.1,42,30.18,10.0,WNW,3.5,-,N/A,,Clear,300,2013-03-26 09:35:00
3:55 AM,19.2,0.3,44,30.16,10.0,Calm,Calm,-,N/A,,Clear,0,2013-03-26 09:55:00
4:15 AM,18.1,-2.0,41,30.16,10.0,NW,3.5,-,N/A,,Clear,310,2013-03-26 10:15:00
4:35 AM,19.4,-2.9,37,30.16,10.0,NW,3.5,-,N/A,,Clear,320,2013-03-26 10:35:00
4:55 AM,19.0,-2.9,38,30.16,10.0,NNW,3.5,-,N/A,,Clear,330,2013-03-26 10:55:00
5:15 AM,18.7,-1.3,42,30.16,10.0,Calm,Calm,-,N/A,,Clear,0,2013-03-26 11:15:00
5:35 AM,18.1,-2.0,41,30.16,10.0,Calm,Calm,-,N/A,,Clear,0,2013-03-26 11:35:00
5:55 AM,18.1,0.5,46,30.16,10.0,Calm,Calm,-,N/A,,Clear,0,2013-03-26 11:55:00
6:15 AM,18.1,0.3,46,30.17,10.0,Calm,Calm,-,N/A,,Clear,0,2013-03-26 12:15:00
6:35 AM,18.5,0.1,45,30.17,10.0,South,3.5,-,N/A,,Clear,180,2013-03-26 12:35:00
6:55 AM,17.2,-2.9,41,30.17,10.0,Calm,Calm,-,N/A,,Clear,0,2013-03-26 12:55:00
7:15 AM,16.2,-4.4,40,30.18,10.0,Calm,Calm,-,N/A,,Clear,0,2013-03-26 13:15:00
7:35 AM,17.2,-4.0,39,30.18,10.0,Calm,Calm,-,N/A,,Clear,0,2013-03-26 13:35:00
7:55 AM,22.5,-1.5,35,30.18,10.0,Calm,Calm,-,N/A,,Clear,0,2013-03-26 13:55:00
8:15 AM,26.2,1.0,34,30.18,10.0,Calm,Calm,-,N/A,,Clear,0,2013-03-26 14:15:00
8:35 AM,31.5,4.3,32,30.18,10.0,Calm,Calm,-,N/A,,Clear,0,2013-03-26 14:35:00
8:55 AM,38.8,7.3,27,30.18,10.0,ESE,6.9,-,N/A,,Clear,120,2013-03-26 14:55:00
9:15 AM,41.2,7.5,25,30.18,10.0,SE,10.4,-,N/A,,Clear,130,2013-03-26 15:15:00
9:35 AM,43.3,7.9,23,30.18,10.0,SE,12.7,-,N/A,,Clear,140,2013-03-26 15:35:00
9:55 AM,45.9,7.7,21,30.17,10.0,SSE,11.5,-,N/A,,Clear,150,2013-03-26 15:55:00
10:15 AM,48.2,7.3,19,30.17,10.0,SSE,11.5,-,N/A,,Clear,150,2013-03-26 16:15:00
10:35 AM,49.1,7.2,18,30.17,10.0,SSE,13.8,18.4,N/A,,Clear,150,2013-03-26 16:35:00
10:55 AM,50.5,7.3,17,30.16,10.0,SE,15.0,-,N/A,,Clear,140,2013-03-26 16:55:00
11:15 AM,50.4,6.8,17,30.15,10.0,ESE,13.8,21.9,N/A,,Clear,120,2013-03-26 17:15:00
11:35 AM,50.4,7.3,18,30.14,10.0,SE,16.1,-,N/A,,Clear,130,2013-03-26 17:35:00
11:55 AM,54.3,7.5,15,30.14,10.0,SE,17.3,-,N/A,,Clear,140,2013-03-26 17:55:00
12:15 PM,57.4,8.6,14,30.12,10.0,ESE,13.8,21.9,N/A,,Clear,120,2013-03-26 18:15:00
12:35 PM,59.2,9.3,14,30.12,10.0,SE,13.8,19.6,N/A,,Scattered Clouds,130,2013-03-26 18:35:00
12:55 PM,60.4,9.5,13,30.10,10.0,SE,15.0,20.7,N/A,,Scattered Clouds,140,2013-03-26 18:55:00
1:15 PM,60.1,9.1,13,30.10,10.0,SSE,13.8,20.7,N/A,,Clear,150,2013-03-26 19:15:00
1:35 PM,60.1,8.6,13,30.09,10.0,SE,15.0,21.9,N/A,,Clear,140,2013-03-26 19:35:00
1:55 PM,59.2,8.2,13,30.08,10.0,SE,12.7,21.9,N/A,,Clear,140,2013-03-26 19:55:00
2:15 PM,60.4,8.2,13,30.07,10.0,SE,13.8,21.9,N/A,,Clear,140,2013-03-26 20:15:00
2:35 PM,62.8,8.2,12,30.07,10.0,SE,13.8,24.2,N/A,,Clear,140,2013-03-26 20:35:00
2:55 PM,61.2,7.7,12,30.06,10.0,SE,11.5,20.7,N/A,,Clear,140,2013-03-26 20:55:00
3:15 PM,61.9,7.7,12,30.05,10.0,SE,12.7,18.4,N/A,,Clear,140,2013-03-26 21:15:00
3:35 PM,62.1,7.9,12,30.04,10.0,SE,12.7,-,N/A,,Scattered Clouds,130,2013-03-26 21:35:00
3:55 PM,62.2,7.7,12,30.04,10.0,SE,10.4,16.1,N/A,,Clear,130,2013-03-26 21:55:00
4:15 PM,63.9,7.7,11,30.03,10.0,SE,9.2,-,N/A,,Clear,130,2013-03-26 22:15:00
4:35 PM,63.5,7.3,11,30.02,10.0,ESE,4.6,-,N/A,,Clear,120,2013-03-26 22:35:00
4:55 PM,64.4,6.8,10,30.01,10.0,West,10.4,18.4,N/A,,Clear,260,2013-03-26 22:55:00
5:15 PM,65.1,5.9,10,30.01,10.0,West,17.3,26.5,N/A,,Clear,280,2013-03-26 23:15:00
5:35 PM,64.8,2.3,8,30.02,10.0,West,12.7,21.9,N/A,,Clear,260,2013-03-26 23:35:00
5:55 PM,64.4,2.7,9,30.02,10.0,West,12.7,19.6,N/A,,Clear,280,2013-03-26 23:55:00
6:15 PM,63.5,3.4,9,30.03,10.0,WSW,10.4,19.6,N/A,,Clear,240,2013-03-27 00:15:00
6:35 PM,62.6,4.8,10,30.03,10.0,West,18.4,25.3,N/A,,Clear,280,2013-03-27 00:35:00
6:55 PM,61.3,3.4,10,30.03,10.0,WSW,12.7,18.4,N/A,,Clear,250,2013-03-27 00:55:00
7:15 PM,59.4,3.0,10,30.04,10.0,West,6.9,-,N/A,,Clear,260,2013-03-27 01:15:00
7:35 PM,57.2,2.8,11,30.04,10.0,West,5.8,-,N/A,,Clear,270,2013-03-27 01:35:00
7:55 PM,55.0,3.0,12,30.04,10.0,WSW,4.6,-,N/A,,Clear,250,2013-03-27 01:55:00
8:15 PM,52.2,2.7,13,30.05,10.0,WSW,5.8,-,N/A,,Clear,250,2013-03-27 02:15:00
8:35 PM,54.0,3.6,13,30.06,10.0,SW,3.5,-,N/A,,Clear,220,2013-03-27 02:35:00
8:55 PM,51.4,3.0,14,30.06,10.0,WSW,3.5,-,N/A,,Clear,240,2013-03-27 02:55:00
9:15 PM,48.9,3.6,16,30.06,10.0,WSW,4.6,-,N/A,,Clear,250,2013-03-27 03:15:00
9:35 PM,44.8,3.4,18,30.07,10.0,SW,5.8,-,N/A,,Clear,230,2013-03-27 03:35:00
9:55 PM,41.5,3.6,21,30.07,10.0,SW,4.6,-,N/A,,Clear,230,2013-03-27 03:55:00
10:15 PM,43.0,4.1,20,30.08,10.0,SW,5.8,-,N/A,,Clear,220,2013-03-27 04:15:00
10:35 PM,41.9,4.5,21,30.08,10.0,Calm,Calm,-,N/A,,Clear,0,2013-03-27 04:35:00
10:55 PM,43.2,4.8,21,30.08,10.0,Calm,Calm,-,N/A,,Clear,0,2013-03-27 04:55:00
11:15 PM,40.5,4.5,22,30.09,10.0,Calm,Calm,-,N/A,,Clear,0,2013-03-27 05:15:00
11:35 PM,37.2,3.6,24,30.09,10.0,Calm,Calm,-,N/A,,Clear,0,2013-03-27 05:35:00
11:55 PM,42.8,5.5,22,30.09,10.0,South,3.5,-,N/A,,Clear,180,2013-03-27 05:55:00